Time,TemperatureF,DewpointF,PressureIn,WindDirection,WindDirectionDegrees,WindSpeedMPH,WindSpeedGustMPH,Humidity,HourlyPrecipIn,Conditions,Clouds,dailyrainin,SoftwareType,DateUTC
2013-01-24 00:02:00,4.9,-3.1,30.48,NNW,329,1.0,1.0,69,0.00,,,0.00,Wunderground v.1.15,2013-01-24 06:02:00,
2013-01-24 00:08:00,4.7,-3.2,30.48,NW,324,2.0,3.0,69,0.00,,,0.00,Wunderground v.1.15,2013-01-24 06:08:00,
2013-01-24 00:14:00,4.6,-3.3,30.48,North,355,0.0,2.0,69,0.00,,,0.00,Wunderground v.1.15,2013-01-24 06:14:00,
2013-01-24 00:19:00,4.5,-3.4,30.48,North,355,1.0,4.0,69,0.00,,,0.00,Wunderground v.1.15,2013-01-24 06:19:00,
2013-01-24 00:24:00,4.4,-3.5,30.49,NNW,335,1.0,3.0,69,0.00,,,0.00,Wunderground v.1.15,2013-01-24 06:24:00,
2013-01-24 00:30:00,4.2,-3.4,30.49,NNE,22,0.0,1.0,70,0.00,,,0.00,Wunderground v.1.15,2013-01-24 06:30:00,
2013-01-24 00:35:00,4.1,-3.5,30.49,NNW,341,2.0,2.0,70,0.00,,,0.00,Wunderground v.1.15,2013-01-24 06:35:00,
2013-01-24 00:40:00,4.0,-3.6,30.50,NNE,30,1.0,1.0,70,0.00,,,0.00,Wunderground v.1.15,2013-01-24 06:40:00,
2013-01-24 00:45:00,3.9,-3.7,30.50,North,355,0.0,2.0,70,0.00,,,0.00,Wunderground v.1.15,2013-01-24 06:45:00,
2013-01-24 00:50:00,3.8,-3.8,30.50,NNE,19,0.0,0.0,70,0.00,,,0.00,Wunderground v.1.15,2013-01-24 06:50:00,
2013-01-24 00:56:00,3.8,-3.8,30.50,NNE,19,1.0,2.0,70,0.00,,,0.00,Wunderground v.1.15,2013-01-24 06:56:00,
2013-01-24 01:01:00,3.7,-3.9,30.51,North,10,0.0,1.0,70,0.00,,,0.00,Wunderground v.1.15,2013-01-24 07:01:00,
2013-01-24 01:06:00,3.7,-3.9,30.51,NNW,342,0.0,1.0,70,0.00,,,0.00,Wunderground v.1.15,2013-01-24 07:06:00,
2013-01-24 01:12:00,3.6,-4.0,30.52,NNW,340,0.0,0.0,70,0.00,,,0.00,Wunderground v.1.15,2013-01-24 07:12:00,
2013-01-24 01:17:00,3.4,-3.9,30.52,NNW,338,0.0,0.0,71,0.00,,,0.00,Wunderground v.1.15,2013-01-24 07:17:00,
2013-01-24 01:22:00,3.3,-4.0,30.52,North,5,0.0,0.0,71,0.00,,,0.00,Wunderground v.1.15,2013-01-24 07:22:00,
2013-01-24 01:27:00,3.2,-4.1,30.53,NW,323,0.0,1.0,71,0.00,,,0.00,Wunderground v.1.15,2013-01-24 07:27:00,
2013-01-24 01:33:00,3.1,-4.2,30.53,North,355,0.0,0.0,71,0.00,,,0.00,Wunderground v.1.15,2013-01-24 07:33:00,
2013-01-24 01:38:00,2.9,-4.4,30.53,NNE,14,1.0,1.0,71,0.00,,,0.00,Wunderground v.1.15,2013-01-24 07:38:00,
2013-01-24 01:43:00,2.8,-4.5,30.53,North,5,0.0,0.0,71,0.00,,,0.00,Wunderground v.1.15,2013-01-24 07:43:00,
2013-01-24 01:48:00,2.9,-4.4,30.54,NNE,23,0.0,0.0,71,0.00,,,0.00,Wunderground v.1.15,2013-01-24 07:48:00,
2013-01-24 01:53:00,2.9,-4.4,30.55,NNW,345,0.0,0.0,71,0.00,,,0.00,Wunderground v.1.15,2013-01-24 07:53:00,
2013-01-24 01:59:00,2.8,-4.5,30.55,NW,306,0.0,0.0,71,0.00,,,0.00,Wunderground v.1.15,2013-01-24 07:59:00,
2013-01-24 02:04:00,2.7,-4.6,30.55,North,11,0.0,0.0,71,0.00,,,0.00,Wunderground v.1.15,2013-01-24 08:04:00,
2013-01-24 02:09:00,2.5,-4.8,30.54,North,355,0.0,1.0,71,0.00,,,0.00,Wunderground v.1.15,2013-01-24 08:09:00,
2013-01-24 02:14:00,2.4,-4.9,30.55,North,11,0.0,0.0,71,0.00,,,0.00,Wunderground v.1.15,2013-01-24 08:14:00,
2013-01-24 02:19:00,2.3,-5.0,30.56,NNE,13,0.0,0.0,71,0.00,,,0.00,Wunderground v.1.15,2013-01-24 08:19:00,
2013-01-24 02:25:00,2.3,-4.7,30.56,NNW,327,0.0,1.0,72,0.00,,,0.00,Wunderground v.1.15,2013-01-24 08:25:00,
2013-01-24 02:30:00,2.2,-5.1,30.56,NE,34,0.0,0.0,71,0.00,,,0.00,Wunderground v.1.15,2013-01-24 08:30:00,
2013-01-24 02:35:00,2.1,-4.9,30.56,NNW,330,0.0,1.0,72,0.00,,,0.00,Wunderground v.1.15,2013-01-24 08:35:00,
2013-01-24 02:40:00,2.0,-5.0,30.56,North,355,0.0,0.0,72,0.00,,,0.00,Wunderground v.1.15,2013-01-24 08:40:00,
2013-01-24 02:45:00,1.8,-5.2,30.57,NNW,338,0.0,3.0,72,0.00,,,0.00,Wunderground v.1.15,2013-01-24 08:45:00,
2013-01-24 02:50:00,1.7,-5.2,30.57,NNE,17,0.0,0.0,72,0.00,,,0.00,Wunderground v.1.15,2013-01-24 08:50:00,
2013-01-24 02:55:00,1.7,-5.2,30.58,North,5,0.0,2.0,72,0.00,,,0.00,Wunderground v.1.15,2013-01-24 08:55:00,
2013-01-24 03:01:00,1.5,-5.4,30.58,North,5,3.0,3.0,72,0.00,,,0.00,Wunderground v.1.15,2013-01-24 09:01:00,
2013-01-24 03:06:00,1.4,-5.3,30.58,North,5,0.0,3.0,73,0.00,,,0.00,Wunderground v.1.15,2013-01-24 09:06:00,
2013-01-24 03:11:00,1.3,-5.3,30.58,North,5,0.0,0.0,73,0.00,,,0.00,Wunderground v.1.15,2013-01-24 09:11:00,
2013-01-24 03:17:00,1.2,-5.4,30.58,NNW,337,0.0,1.0,73,0.00,,,0.00,Wunderground v.1.15,2013-01-24 09:17:00,
2013-01-24 03:22:00,1.1,-5.5,30.58,NNW,333,0.0,0.0,73,0.00,,,0.00,Wunderground v.1.15,2013-01-24 09:22:00,
2013-01-24 03:27:00,1.0,-5.6,30.59,NNW,329,0.0,1.0,73,0.00,,,0.00,Wunderground v.1.15,2013-01-24 09:27:00,
2013-01-24 03:32:00,0.9,-5.7,30.59,NNW,336,0.0,1.0,73,0.00,,,0.00,Wunderground v.1.15,2013-01-24 09:32:00,
2013-01-24 03:37:00,0.8,-5.8,30.60,North,351,0.0,1.0,73,0.00,,,0.00,Wunderground v.1.15,2013-01-24 09:37:00,
2013-01-24 03:42:00,0.7,-5.6,30.60,NW,309,0.0,0.0,74,0.00,,,0.00,Wunderground v.1.15,2013-01-24 09:42:00,
2013-01-24 03:47:00,0.6,-5.7,30.60,WNW,298,0.0,1.0,74,0.00,,,0.00,Wunderground v.1.15,2013-01-24 09:47:00,
2013-01-24 03:52:00,0.5,-5.8,30.60,WSW,246,0.0,0.0,74,0.00,,,0.00,Wunderground v.1.15,2013-01-24 09:52:00,
2013-01-24 03:58:00,0.4,-5.9,30.60,NW,315,0.0,2.0,74,0.00,,,0.00,Wunderground v.1.15,2013-01-24 09:58:00,
2013-01-24 04:03:00,0.3,-6.0,30.61,NNE,17,0.0,0.0,74,0.00,,,0.00,Wunderground v.1.15,2013-01-24 10:03:00,
2013-01-24 04:08:00,0.2,-6.1,30.61,North,355,0.0,3.0,74,0.00,,,0.00,Wunderground v.1.15,2013-01-24 10:08:00,
2013-01-24 04:13:00,0.2,-5.9,30.61,NNW,342,1.0,1.0,75,0.00,,,0.00,Wunderground v.1.15,2013-01-24 10:13:00,
2013-01-24 04:18:00,0.1,-6.2,30.61,NNE,26,1.0,1.0,74,0.00,,,0.00,Wunderground v.1.15,2013-01-24 10:18:00,
2013-01-24 04:23:00,0.0,-6.0,30.61,NNW,344,0.0,1.0,75,0.00,,,0.00,Wunderground v.1.15,2013-01-24 10:23:00,
2013-01-24 04:28:00,0.0,-6.0,30.62,NNW,348,0.0,1.0,75,0.00,,,0.00,Wunderground v.1.15,2013-01-24 10:28:00,
2013-01-24 04:33:00,-0.1,-6.1,30.62,North,355,0.0,1.0,75,0.00,,,0.00,Wunderground v.1.15,2013-01-24 10:33:00,
2013-01-24 04:38:00,-0.1,-6.1,30.63,NNW,348,0.0,1.0,75,0.00,,,0.00,Wunderground v.1.15,2013-01-24 10:38:00,
2013-01-24 04:43:00,-0.2,-6.2,30.63,NNW,333,0.0,1.0,75,0.00,,,0.00,Wunderground v.1.15,2013-01-24 10:43:00,
2013-01-24 04:48:00,-0.3,-6.3,30.63,North,355,0.0,1.0,75,0.00,,,0.00,Wunderground v.1.15,2013-01-24 10:48:00,
2013-01-24 04:53:00,-0.4,-6.4,30.64,NW,321,1.0,2.0,75,0.00,,,0.00,Wunderground v.1.15,2013-01-24 10:53:00,
2013-01-24 04:58:00,-0.4,-6.4,30.64,North,351,1.0,2.0,75,0.00,,,0.00,Wunderground v.1.15,2013-01-24 10:58:00,
2013-01-24 05:03:00,-0.5,-6.5,30.64,NNW,327,0.0,1.0,75,0.00,,,0.00,Wunderground v.1.15,2013-01-24 11:03:00,
2013-01-24 05:09:00,-0.5,-6.3,30.65,NNW,330,0.0,1.0,76,0.00,,,0.00,Wunderground v.1.15,2013-01-24 11:09:00,
2013-01-24 05:14:00,-0.5,-6.3,30.65,NE,41,0.0,0.0,76,0.00,,,0.00,Wunderground v.1.15,2013-01-24 11:14:00,
2013-01-24 05:19:00,-0.5,-6.3,30.65,NNE,32,0.0,1.0,76,0.00,,,0.00,Wunderground v.1.15,2013-01-24 11:19:00,
2013-01-24 05:25:00,-0.5,-6.3,30.66,North,355,0.0,0.0,76,0.00,,,0.00,Wunderground v.1.15,2013-01-24 11:25:00,
2013-01-24 05:30:00,-0.6,-6.4,30.66,NE,37,0.0,1.0,76,0.00,,,0.00,Wunderground v.1.15,2013-01-24 11:30:00,
2013-01-24 05:35:00,-0.6,-6.4,30.66,NNW,348,0.0,0.0,76,0.00,,,0.00,Wunderground v.1.15,2013-01-24 11:35:00,
2013-01-24 05:40:00,-0.6,-6.4,30.66,NNE,30,0.0,0.0,76,0.00,,,0.00,Wunderground v.1.15,2013-01-24 11:40:00,
2013-01-24 05:45:00,-0.7,-6.5,30.67,NNW,344,0.0,1.0,76,0.00,,,0.00,Wunderground v.1.15,2013-01-24 11:45:00,
2013-01-24 05:50:00,-0.7,-6.5,30.66,NNW,348,0.0,0.0,76,0.00,,,0.00,Wunderground v.1.15,2013-01-24 11:50:00,
2013-01-24 05:55:00,-0.7,-6.5,30.66,NE,36,0.0,1.0,76,0.00,,,0.00,Wunderground v.1.15,2013-01-24 11:55:00,
2013-01-24 06:00:00,-0.7,-6.5,30.66,North,360,0.0,0.0,76,0.00,,,0.00,Wunderground v.1.15,2013-01-24 12:00:00,
2013-01-24 06:05:00,-0.7,-6.5,30.66,North,9,0.0,1.0,76,0.00,,,0.00,Wunderground v.1.15,2013-01-24 12:05:00,
2013-01-24 06:11:00,-0.8,-6.5,30.67,North,351,0.0,0.0,76,0.00,,,0.00,Wunderground v.1.15,2013-01-24 12:11:00,
2013-01-24 06:16:00,-0.8,-6.5,30.67,NNE,25,0.0,2.0,76,0.00,,,0.00,Wunderground v.1.15,2013-01-24 12:16:00,
2013-01-24 06:21:00,0.7,-4.8,30.67,NNW,347,3.0,5.0,77,0.00,,,0.00,Wunderground v.1.15,2013-01-24 12:21:00,
2013-01-24 06:26:00,0.8,-4.7,30.67,NNW,338,2.0,6.0,77,0.00,,,0.00,Wunderground v.1.15,2013-01-24 12:26:00,
2013-01-24 06:31:00,-0.8,-6.3,30.67,NNE,18,0.0,2.0,77,0.00,,,0.00,Wunderground v.1.15,2013-01-24 12:31:00,
2013-01-24 06:36:00,-0.9,-6.6,30.66,NNE,18,0.0,2.0,76,0.00,,,0.00,Wunderground v.1.15,2013-01-24 12:36:00,
2013-01-24 06:41:00,-0.9,-6.4,30.67,NNW,347,0.0,0.0,77,0.00,,,0.00,Wunderground v.1.15,2013-01-24 12:41:00,
2013-01-24 06:46:00,-0.9,-6.4,30.67,NNE,22,0.0,0.0,77,0.00,,,0.00,Wunderground v.1.15,2013-01-24 12:46:00,
2013-01-24 06:51:00,-0.9,-6.4,30.67,NNE,26,0.0,0.0,77,0.00,,,0.00,Wunderground v.1.15,2013-01-24 12:51:00,
2013-01-24 06:56:00,-0.9,-6.4,30.67,NNE,26,0.0,0.0,77,0.00,,,0.00,Wunderground v.1.15,2013-01-24 12:56:00,
2013-01-24 07:01:00,-0.9,-6.4,30.68,NNE,26,0.0,0.0,77,0.00,,,0.00,Wunderground v.1.15,2013-01-24 13:01:00,
2013-01-24 07:06:00,-0.9,-6.4,30.68,NNE,25,0.0,0.0,77,0.00,,,0.00,Wunderground v.1.15,2013-01-24 13:06:00,
2013-01-24 07:12:00,-0.9,-6.4,30.68,NNE,33,0.0,0.0,77,0.00,,,0.00,Wunderground v.1.15,2013-01-24 13:12:00,
2013-01-24 07:17:00,-0.9,-6.4,30.68,NNW,345,0.0,0.0,77,0.00,,,0.00,Wunderground v.1.15,2013-01-24 13:17:00,
2013-01-24 07:22:00,-1.0,-6.5,30.68,NNW,345,0.0,0.0,77,0.00,,,0.00,Wunderground v.1.15,2013-01-24 13:22:00,
2013-01-24 07:27:00,-1.0,-6.5,30.68,NNW,345,0.0,0.0,77,0.00,,,0.00,Wunderground v.1.15,2013-01-24 13:27:00,
2013-01-24 07:33:00,-0.9,-6.4,30.69,NNE,17,0.0,1.0,77,0.00,,,0.00,Wunderground v.1.15,2013-01-24 13:33:00,
2013-01-24 07:38:00,-0.9,-6.4,30.69,North,355,0.0,1.0,77,0.00,,,0.00,Wunderground v.1.15,2013-01-24 13:38:00,
2013-01-24 07:44:00,-0.8,-6.3,30.69,NNE,19,0.0,0.0,77,0.00,,,0.00,Wunderground v.1.15,2013-01-24 13:44:00,
2013-01-24 07:49:00,-0.7,-6.2,30.70,NNE,18,0.0,0.0,77,0.00,,,0.00,Wunderground v.1.15,2013-01-24 13:49:00,
2013-01-24 07:55:00,-0.7,-6.2,30.70,NNE,18,0.0,0.0,77,0.00,,,0.00,Wunderground v.1.15,2013-01-24 13:55:00,
2013-01-24 08:00:00,-0.5,-6.0,30.71,NE,43,0.0,0.0,77,0.00,,,0.00,Wunderground v.1.15,2013-01-24 14:00:00,
2013-01-24 08:05:00,-0.4,-5.9,30.71,NE,43,0.0,0.0,77,0.00,,,0.00,Wunderground v.1.15,2013-01-24 14:05:00,
2013-01-24 08:10:00,-0.4,-5.9,30.71,NE,43,0.0,0.0,77,0.00,,,0.00,Wunderground v.1.15,2013-01-24 14:10:00,
2013-01-24 08:15:00,-0.3,-5.8,30.71,NE,42,0.0,1.0,77,0.00,,,0.00,Wunderground v.1.15,2013-01-24 14:15:00,
2013-01-24 08:20:00,0.0,-5.5,30.72,North,360,0.0,0.0,77,0.00,,,0.00,Wunderground v.1.15,2013-01-24 14:20:00,
2013-01-24 08:25:00,0.1,-5.4,30.72,NNW,343,0.0,2.0,77,0.00,,,0.00,Wunderground v.1.15,2013-01-24 14:25:00,
2013-01-24 08:30:00,0.2,-5.6,30.72,NNE,22,0.0,2.0,76,0.00,,,0.00,Wunderground v.1.15,2013-01-24 14:30:00,
2013-01-24 08:36:00,0.3,-5.5,30.72,NNE,19,0.0,2.0,76,0.00,,,0.00,Wunderground v.1.15,2013-01-24 14:36:00,
2013-01-24 08:41:00,2.5,-3.1,30.72,North,355,1.0,4.0,77,0.00,,,0.00,Wunderground v.1.15,2013-01-24 14:41:00,
2013-01-24 08:46:00,2.6,-3.2,30.72,North,355,2.0,7.0,76,0.00,,,0.00,Wunderground v.1.15,2013-01-24 14:46:00,
2013-01-24 08:52:00,2.8,-3.1,30.73,NNE,17,1.0,5.0,76,0.00,,,0.00,Wunderground v.1.15,2013-01-24 14:52:00,
2013-01-24 08:57:00,2.9,-3.0,30.73,North,360,2.0,5.0,76,0.00,,,0.00,Wunderground v.1.15,2013-01-24 14:57:00,
2013-01-24 09:02:00,3.1,-2.8,30.73,ENE,57,4.0,6.0,76,0.00,,,0.00,Wunderground v.1.15,2013-01-24 15:02:00,
2013-01-24 09:07:00,3.2,-2.7,30.72,NE,44,2.0,6.0,76,0.00,,,0.00,Wunderground v.1.15,2013-01-24 15:07:00,
2013-01-24 09:12:00,3.5,-2.4,30.73,NNE,28,4.0,5.0,76,0.00,,,0.00,Wunderground v.1.15,2013-01-24 15:12:00,
2013-01-24 09:17:00,3.7,-2.5,30.73,North,5,0.0,5.0,75,0.00,,,0.00,Wunderground v.1.15,2013-01-24 15:17:00,
2013-01-24 09:22:00,3.9,-2.3,30.73,NNE,23,3.0,6.0,75,0.00,,,0.00,Wunderground v.1.15,2013-01-24 15:22:00,
2013-01-24 09:27:00,4.0,-2.2,30.73,NE,42,2.0,6.0,75,0.00,,,0.00,Wunderground v.1.15,2013-01-24 15:27:00,
2013-01-24 09:32:00,4.1,-2.4,30.72,NNE,18,3.0,6.0,74,0.00,,,0.00,Wunderground v.1.15,2013-01-24 15:32:00,
2013-01-24 09:37:00,4.3,-2.2,30.73,NE,42,1.0,6.0,74,0.00,,,0.00,Wunderground v.1.15,2013-01-24 15:37:00,
2013-01-24 09:42:00,4.7,-1.8,30.73,NNE,32,3.0,6.0,74,0.00,,,0.00,Wunderground v.1.15,2013-01-24 15:42:00,
2013-01-24 09:47:00,4.9,-1.9,30.72,NNE,17,2.0,6.0,73,0.00,,,0.00,Wunderground v.1.15,2013-01-24 15:47:00,
2013-01-24 09:52:00,5.1,-1.7,30.73,NE,49,3.0,6.0,73,0.00,,,0.00,Wunderground v.1.15,2013-01-24 15:52:00,
2013-01-24 09:57:00,5.4,-1.4,30.73,NE,40,4.0,6.0,73,0.00,,,0.00,Wunderground v.1.15,2013-01-24 15:57:00,
2013-01-24 10:02:00,5.7,-1.1,30.73,North,355,4.0,5.0,73,0.00,,,0.00,Wunderground v.1.15,2013-01-24 16:02:00,
2013-01-24 10:07:00,6.2,-0.6,30.73,NNE,22,1.0,5.0,73,0.00,,,0.00,Wunderground v.1.15,2013-01-24 16:07:00,
2013-01-24 10:12:00,6.5,-0.3,30.73,NNE,21,1.0,3.0,73,0.00,,,0.00,Wunderground v.1.15,2013-01-24 16:12:00,
2013-01-24 10:18:00,6.7,-0.4,30.73,North,360,3.0,5.0,72,0.00,,,0.00,Wunderground v.1.15,2013-01-24 16:18:00,
2013-01-24 10:24:00,7.0,-0.4,30.73,NNE,19,3.0,4.0,71,0.00,,,0.00,Wunderground v.1.15,2013-01-24 16:24:00,
2013-01-24 10:29:00,7.2,-0.2,30.72,NE,38,2.0,5.0,71,0.00,,,0.00,Wunderground v.1.15,2013-01-24 16:29:00,
2013-01-24 10:34:00,7.5,0.1,30.72,NNE,33,3.0,5.0,71,0.00,,,0.00,Wunderground v.1.15,2013-01-24 16:34:00,
2013-01-24 10:39:00,7.7,0.2,30.72,NNE,32,3.0,5.0,71,0.00,,,0.00,Wunderground v.1.15,2013-01-24 16:39:00,
2013-01-24 10:45:00,8.1,0.6,30.72,North,5,2.0,4.0,71,0.00,,,0.00,Wunderground v.1.15,2013-01-24 16:45:00,
2013-01-24 10:50:00,8.4,0.9,30.71,NNW,340,3.0,3.0,71,0.00,,,0.00,Wunderground v.1.15,2013-01-24 16:50:00,
2013-01-24 10:56:00,8.6,0.8,30.71,NNE,24,0.0,4.0,70,0.00,,,0.00,Wunderground v.1.15,2013-01-24 16:56:00,
2013-01-24 11:01:00,8.8,1.0,30.71,North,10,0.0,2.0,70,0.00,,,0.00,Wunderground v.1.15,2013-01-24 17:01:00,
2013-01-24 11:06:00,9.1,1.3,30.71,North,360,1.0,4.0,70,0.00,,,0.00,Wunderground v.1.15,2013-01-24 17:06:00,
2013-01-24 11:11:00,9.1,1.0,30.70,North,360,0.0,3.0,69,0.00,,,0.00,Wunderground v.1.15,2013-01-24 17:11:00,
2013-01-24 11:16:00,9.2,1.1,30.70,NNW,343,5.0,5.0,69,0.00,,,0.00,Wunderground v.1.15,2013-01-24 17:16:00,
2013-01-24 11:21:00,9.4,1.6,30.70,NNW,339,1.0,3.0,70,0.00,,,0.00,Wunderground v.1.15,2013-01-24 17:21:00,
2013-01-24 11:26:00,9.6,1.8,30.70,North,355,2.0,3.0,70,0.00,,,0.00,Wunderground v.1.15,2013-01-24 17:26:00,
2013-01-24 11:31:00,9.8,2.0,30.70,NNE,26,1.0,4.0,70,0.00,,,0.00,Wunderground v.1.15,2013-01-24 17:31:00,
2013-01-24 11:36:00,9.9,1.8,30.70,NE,36,3.0,4.0,69,0.00,,,0.00,Wunderground v.1.15,2013-01-24 17:36:00,
2013-01-24 11:41:00,10.3,2.4,30.70,North,360,1.0,2.0,70,0.00,,,0.00,Wunderground v.1.15,2013-01-24 17:41:00,
2013-01-24 11:46:00,10.5,2.3,30.69,NNE,32,2.0,2.0,69,0.00,,,0.00,Wunderground v.1.15,2013-01-24 17:46:00,
2013-01-24 11:52:00,10.8,2.6,30.69,NE,36,4.0,4.0,69,0.00,,,0.00,Wunderground v.1.15,2013-01-24 17:52:00,
2013-01-24 11:57:00,10.9,2.7,30.69,North,350,1.0,4.0,69,0.00,,,0.00,Wunderground v.1.15,2013-01-24 17:57:00,
2013-01-24 12:02:00,11.1,2.9,30.68,NNE,22,2.0,3.0,69,0.00,,,0.00,Wunderground v.1.15,2013-01-24 18:02:00,
2013-01-24 12:08:00,11.4,3.2,30.68,NNE,32,0.0,3.0,69,0.00,,,0.00,Wunderground v.1.15,2013-01-24 18:08:00,
2013-01-24 12:13:00,11.7,3.2,30.68,NE,43,1.0,1.0,68,0.00,,,0.00,Wunderground v.1.15,2013-01-24 18:13:00,
2013-01-24 12:18:00,12.1,3.6,30.68,ENE,66,1.0,2.0,68,0.00,,,0.00,Wunderground v.1.15,2013-01-24 18:18:00,
2013-01-24 12:23:00,12.3,3.7,30.67,NNE,16,1.0,3.0,68,0.00,,,0.00,Wunderground v.1.15,2013-01-24 18:23:00,
2013-01-24 12:28:00,12.5,3.9,30.67,NNE,12,1.0,3.0,68,0.00,,,0.00,Wunderground v.1.15,2013-01-24 18:28:00,
2013-01-24 12:33:00,12.8,4.2,30.67,NE,37,2.0,2.0,68,0.00,,,0.00,Wunderground v.1.15,2013-01-24 18:33:00,
2013-01-24 12:38:00,13.0,4.1,30.66,North,360,1.0,2.0,67,0.00,,,0.00,Wunderground v.1.15,2013-01-24 18:38:00,
2013-01-24 12:43:00,13.2,4.3,30.66,NE,42,3.0,3.0,67,0.00,,,0.00,Wunderground v.1.15,2013-01-24 18:43:00,
2013-01-24 12:48:00,13.3,4.4,30.66,North,10,2.0,4.0,67,0.00,,,0.00,Wunderground v.1.15,2013-01-24 18:48:00,
2013-01-24 12:53:00,13.5,4.6,30.66,North,5,1.0,2.0,67,0.00,,,0.00,Wunderground v.1.15,2013-01-24 18:53:00,
2013-01-24 12:58:00,13.6,4.3,30.66,NNE,31,1.0,2.0,66,0.00,,,0.00,Wunderground v.1.15,2013-01-24 18:58:00,
2013-01-24 13:03:00,13.8,4.5,30.65,NNE,24,0.0,2.0,66,0.00,,,0.00,Wunderground v.1.15,2013-01-24 19:03:00,
2013-01-24 13:08:00,13.7,4.1,30.65,NNE,24,1.0,3.0,65,0.00,,,0.00,Wunderground v.1.15,2013-01-24 19:08:00,
2013-01-24 13:13:00,13.5,3.9,30.65,NNE,32,0.0,2.0,65,0.00,,,0.00,Wunderground v.1.15,2013-01-24 19:13:00,
2013-01-24 13:18:00,13.6,4.0,30.64,North,5,0.0,2.0,65,0.00,,,0.00,Wunderground v.1.15,2013-01-24 19:18:00,
2013-01-24 13:23:00,13.8,4.2,30.65,NE,44,0.0,2.0,65,0.00,,,0.00,Wunderground v.1.15,2013-01-24 19:23:00,
2013-01-24 13:28:00,13.9,4.3,30.65,North,355,1.0,3.0,65,0.00,,,0.00,Wunderground v.1.15,2013-01-24 19:28:00,
2013-01-24 13:34:00,14.0,4.4,30.65,NW,325,1.0,3.0,65,0.00,,,0.00,Wunderground v.1.15,2013-01-24 19:34:00,
2013-01-24 13:39:00,14.1,4.1,30.64,North,360,0.0,4.0,64,0.00,,,0.00,Wunderground v.1.15,2013-01-24 19:39:00,
2013-01-24 13:44:00,14.4,4.8,30.65,North,360,0.0,1.0,65,0.00,,,0.00,Wunderground v.1.15,2013-01-24 19:44:00,
2013-01-24 13:49:00,14.5,4.5,30.64,ENE,57,1.0,2.0,64,0.00,,,0.00,Wunderground v.1.15,2013-01-24 19:49:00,
2013-01-24 13:54:00,14.6,4.3,30.64,NE,40,1.0,1.0,63,0.00,,,0.00,Wunderground v.1.15,2013-01-24 19:54:00,
2013-01-24 13:59:00,14.7,4.4,30.64,NE,49,0.0,1.0,63,0.00,,,0.00,Wunderground v.1.15,2013-01-24 19:59:00,
2013-01-24 14:04:00,14.8,4.8,30.63,NE,37,2.0,2.0,64,0.00,,,0.00,Wunderground v.1.15,2013-01-24 20:04:00,
2013-01-24 14:09:00,14.9,4.9,30.63,NNE,26,1.0,2.0,64,0.00,,,0.00,Wunderground v.1.15,2013-01-24 20:09:00,
2013-01-24 14:14:00,14.9,4.2,30.63,North,355,1.0,3.0,62,0.00,,,0.00,Wunderground v.1.15,2013-01-24 20:14:00,
2013-01-24 14:19:00,14.8,3.8,30.63,North,355,0.0,3.0,61,0.00,,,0.00,Wunderground v.1.15,2013-01-24 20:19:00,
2013-01-24 14:24:00,14.9,3.9,30.63,North,355,1.0,1.0,61,0.00,,,0.00,Wunderground v.1.15,2013-01-24 20:24:00,
2013-01-24 14:30:00,13.7,3.4,30.64,NNE,22,0.0,0.0,63,0.00,,,0.00,Wunderground v.1.15,2013-01-24 20:30:00,
2013-01-24 14:36:00,13.9,3.3,30.63,NNE,22,0.0,0.0,62,0.00,,,0.00,Wunderground v.1.15,2013-01-24 20:36:00,
2013-01-24 14:41:00,13.8,3.2,30.63,NNE,22,1.0,1.0,62,0.00,,,0.00,Wunderground v.1.15,2013-01-24 20:41:00,
2013-01-24 14:46:00,13.7,3.1,30.63,NNE,22,0.0,1.0,62,0.00,,,0.00,Wunderground v.1.15,2013-01-24 20:46:00,
2013-01-24 14:51:00,13.6,3.0,30.63,NE,38,0.0,1.0,62,0.00,,,0.00,Wunderground v.1.15,2013-01-24 20:51:00,
2013-01-24 14:56:00,15.2,4.5,30.63,East,80,1.0,3.0,62,0.00,,,0.00,Wunderground v.1.15,2013-01-24 20:56:00,
2013-01-24 15:01:00,15.1,4.1,30.62,East,80,0.0,1.0,61,0.00,,,0.00,Wunderground v.1.15,2013-01-24 21:01:00,
2013-01-24 15:06:00,15.1,4.4,30.63,ENE,58,0.0,2.0,62,0.00,,,0.00,Wunderground v.1.15,2013-01-24 21:06:00,
2013-01-24 15:11:00,15.2,4.9,30.62,ENE,57,0.0,0.0,63,0.00,,,0.00,Wunderground v.1.15,2013-01-24 21:11:00,
2013-01-24 15:16:00,15.3,4.9,30.62,ENE,57,1.0,1.0,63,0.00,,,0.00,Wunderground v.1.15,2013-01-24 21:16:00,
2013-01-24 15:21:00,15.3,4.9,30.62,ENE,57,1.0,1.0,63,0.00,,,0.00,Wunderground v.1.15,2013-01-24 21:21:00,
2013-01-24 15:27:00,15.2,4.9,30.62,NE,55,0.0,2.0,63,0.00,,,0.00,Wunderground v.1.15,2013-01-24 21:27:00,
2013-01-24 15:32:00,15.3,5.3,30.63,NE,55,1.0,1.0,64,0.00,,,0.00,Wunderground v.1.15,2013-01-24 21:32:00,
2013-01-24 15:37:00,13.6,4.0,30.62,NE,37,0.0,3.0,65,0.00,,,0.00,Wunderground v.1.15,2013-01-24 21:37:00,
2013-01-24 15:42:00,13.7,3.8,30.61,NE,37,0.0,0.0,64,0.00,,,0.00,Wunderground v.1.15,2013-01-24 21:42:00,
2013-01-24 15:47:00,13.8,4.2,30.61,NE,37,0.0,0.0,65,0.00,,,0.00,Wunderground v.1.15,2013-01-24 21:47:00,
2013-01-24 15:52:00,13.8,3.2,30.61,NE,37,0.0,0.0,62,0.00,,,0.00,Wunderground v.1.15,2013-01-24 21:52:00,
2013-01-24 15:57:00,13.7,2.7,30.61,NE,37,0.0,1.0,61,0.00,,,0.00,Wunderground v.1.15,2013-01-24 21:57:00,
2013-01-24 16:03:00,13.6,2.6,30.61,NE,37,0.0,0.0,61,0.00,,,0.00,Wunderground v.1.15,2013-01-24 22:03:00,
2013-01-24 16:08:00,13.6,2.6,30.60,NE,37,0.0,0.0,61,0.00,,,0.00,Wunderground v.1.15,2013-01-24 22:08:00,
2013-01-24 16:13:00,13.6,3.0,30.60,NE,37,0.0,0.0,62,0.00,,,0.00,Wunderground v.1.15,2013-01-24 22:13:00,
2013-01-24 16:19:00,13.5,3.2,30.60,NE,37,0.0,1.0,63,0.00,,,0.00,Wunderground v.1.15,2013-01-24 22:19:00,
2013-01-24 16:24:00,13.5,3.2,30.60,NE,37,0.0,0.0,63,0.00,,,0.00,Wunderground v.1.15,2013-01-24 22:24:00,
2013-01-24 16:29:00,13.5,3.6,30.60,NE,37,0.0,0.0,64,0.00,,,0.00,Wunderground v.1.15,2013-01-24 22:29:00,
2013-01-24 16:34:00,13.5,3.2,30.60,NE,37,0.0,0.0,63,0.00,,,0.00,Wunderground v.1.15,2013-01-24 22:34:00,
2013-01-24 16:39:00,13.5,3.6,30.60,NE,37,0.0,0.0,64,0.00,,,0.00,Wunderground v.1.15,2013-01-24 22:39:00,
2013-01-24 16:44:00,13.5,3.6,30.59,NE,37,0.0,0.0,64,0.00,,,0.00,Wunderground v.1.15,2013-01-24 22:44:00,
2013-01-24 16:49:00,13.5,3.6,30.59,NE,37,0.0,0.0,64,0.00,,,0.00,Wunderground v.1.15,2013-01-24 22:49:00,
2013-01-24 16:54:00,13.5,3.6,30.60,NE,37,0.0,0.0,64,0.00,,,0.00,Wunderground v.1.15,2013-01-24 22:54:00,
2013-01-24 16:59:00,14.8,4.8,30.60,NNW,342,0.0,0.0,64,0.00,,,0.00,Wunderground v.1.15,2013-01-24 22:59:00,
2013-01-24 17:04:00,14.7,4.7,30.60,NNW,342,0.0,0.0,64,0.00,,,0.00,Wunderground v.1.15,2013-01-24 23:04:00,
2013-01-24 17:09:00,14.6,4.3,30.60,NNW,342,0.0,0.0,63,0.00,,,0.00,Wunderground v.1.15,2013-01-24 23:09:00,
2013-01-24 17:14:00,14.6,4.3,30.60,NNW,342,0.0,0.0,63,0.00,,,0.00,Wunderground v.1.15,2013-01-24 23:14:00,
2013-01-24 17:19:00,14.6,4.6,30.59,NNW,342,0.0,0.0,64,0.00,,,0.00,Wunderground v.1.15,2013-01-24 23:19:00,
2013-01-24 17:24:00,14.5,4.5,30.60,NNW,342,0.0,0.0,64,0.00,,,0.00,Wunderground v.1.15,2013-01-24 23:24:00,
2013-01-24 17:29:00,14.5,4.5,30.59,NNW,342,0.0,0.0,64,0.00,,,0.00,Wunderground v.1.15,2013-01-24 23:29:00,
2013-01-24 17:34:00,14.5,5.2,30.59,NNW,342,0.0,0.0,66,0.00,,,0.00,Wunderground v.1.15,2013-01-24 23:34:00,
2013-01-24 17:39:00,14.5,5.2,30.59,NNW,342,0.0,0.0,66,0.00,,,0.00,Wunderground v.1.15,2013-01-24 23:39:00,
2013-01-24 17:45:00,13.4,3.8,30.59,NE,37,0.0,0.0,65,0.00,,,0.00,Wunderground v.1.15,2013-01-24 23:45:00,
2013-01-24 17:50:00,13.3,4.1,30.59,NE,38,0.0,0.0,66,0.00,,,0.00,Wunderground v.1.15,2013-01-24 23:50:00,
2013-01-24 17:55:00,13.3,4.1,30.59,NE,37,0.0,0.0,66,0.00,,,0.00,Wunderground v.1.15,2013-01-24 23:55:00,
2013-01-24 18:01:00,13.3,4.1,30.58,NE,37,0.0,0.0,66,0.00,,,0.00,Wunderground v.1.15,2013-01-25 00:01:00,
2013-01-24 18:06:00,13.2,4.3,30.57,NE,37,0.0,0.0,67,0.00,,,0.00,Wunderground v.1.15,2013-01-25 00:06:00,
2013-01-24 18:11:00,13.2,4.3,30.58,NE,37,0.0,0.0,67,0.00,,,0.00,Wunderground v.1.15,2013-01-25 00:11:00,
2013-01-24 18:16:00,13.2,4.6,30.57,NE,37,0.0,0.0,68,0.00,,,0.00,Wunderground v.1.15,2013-01-25 00:16:00,
2013-01-24 18:21:00,13.2,4.6,30.57,NE,37,0.0,0.0,68,0.00,,,0.00,Wunderground v.1.15,2013-01-25 00:21:00,
2013-01-24 18:26:00,13.2,4.6,30.56,NE,37,0.0,0.0,68,0.00,,,0.00,Wunderground v.1.15,2013-01-25 00:26:00,
2013-01-24 18:31:00,14.6,6.6,30.57,NNW,342,0.0,0.0,70,0.00,,,0.00,Wunderground v.1.15,2013-01-25 00:31:00,
2013-01-24 18:36:00,14.7,6.7,30.56,NNW,342,0.0,0.0,70,0.00,,,0.00,Wunderground v.1.15,2013-01-25 00:36:00,
2013-01-24 18:41:00,14.7,6.7,30.55,NNW,342,0.0,0.0,70,0.00,,,0.00,Wunderground v.1.15,2013-01-25 00:41:00,
2013-01-24 18:46:00,14.8,6.8,30.55,NE,43,0.0,1.0,70,0.00,,,0.00,Wunderground v.1.15,2013-01-25 00:46:00,
2013-01-24 18:51:00,14.8,6.5,30.55,NE,55,1.0,1.0,69,0.00,,,0.00,Wunderground v.1.15,2013-01-25 00:51:00,
2013-01-24 18:56:00,14.9,6.9,30.55,ENE,70,0.0,2.0,70,0.00,,,0.00,Wunderground v.1.15,2013-01-25 00:56:00,
2013-01-24 19:01:00,15.0,7.0,30.54,East,98,1.0,4.0,70,0.00,,,0.00,Wunderground v.1.15,2013-01-25 01:01:00,
2013-01-24 19:07:00,15.1,7.1,30.54,East,90,0.0,4.0,70,0.00,,,0.00,Wunderground v.1.15,2013-01-25 01:07:00,
2013-01-24 19:12:00,15.1,7.1,30.54,East,90,0.0,1.0,70,0.00,,,0.00,Wunderground v.1.15,2013-01-25 01:12:00,
2013-01-24 19:17:00,15.1,7.1,30.54,East,90,1.0,1.0,70,0.00,,,0.00,Wunderground v.1.15,2013-01-25 01:17:00,
2013-01-24 19:22:00,15.2,7.5,30.54,East,90,0.0,0.0,71,0.00,,,0.00,Wunderground v.1.15,2013-01-25 01:22:00,
2013-01-24 19:27:00,15.2,7.5,30.53,East,90,0.0,1.0,71,0.00,,,0.00,Wunderground v.1.15,2013-01-25 01:27:00,
2013-01-24 19:32:00,15.2,7.8,30.53,East,90,0.0,0.0,72,0.00,,,0.00,Wunderground v.1.15,2013-01-25 01:32:00,
2013-01-24 19:37:00,15.2,7.8,30.53,East,90,0.0,1.0,72,0.00,,,0.00,Wunderground v.1.15,2013-01-25 01:37:00,
2013-01-24 19:42:00,15.3,7.9,30.52,East,90,0.0,2.0,72,0.00,,,0.00,Wunderground v.1.15,2013-01-25 01:42:00,
2013-01-24 19:48:00,15.3,7.9,30.52,East,92,1.0,3.0,72,0.00,,,0.00,Wunderground v.1.15,2013-01-25 01:48:00,
2013-01-24 19:54:00,15.4,8.0,30.51,East,90,0.0,3.0,72,0.00,,,0.00,Wunderground v.1.15,2013-01-25 01:54:00,
2013-01-24 19:59:00,15.5,8.1,30.52,East,90,0.0,3.0,72,0.00,,,0.00,Wunderground v.1.15,2013-01-25 01:59:00,
2013-01-24 20:04:00,15.6,8.2,30.51,East,92,0.0,1.0,72,0.00,,,0.00,Wunderground v.1.15,2013-01-25 02:04:00,
2013-01-24 20:09:00,15.6,8.5,30.51,East,100,0.0,3.0,73,0.00,,,0.00,Wunderground v.1.15,2013-01-25 02:09:00,
2013-01-24 20:15:00,15.7,8.6,30.51,East,100,0.0,1.0,73,0.00,,,0.00,Wunderground v.1.15,2013-01-25 02:15:00,
2013-01-24 20:20:00,15.8,8.7,30.51,East,100,0.0,0.0,73,0.00,,,0.00,Wunderground v.1.15,2013-01-25 02:20:00,
2013-01-24 20:26:00,15.9,8.8,30.51,East,100,1.0,1.0,73,0.00,,,0.00,Wunderground v.1.15,2013-01-25 02:26:00,
2013-01-24 20:31:00,16.0,8.9,30.51,SSE,160,2.0,3.0,73,0.00,,,0.00,Wunderground v.1.15,2013-01-25 02:31:00,
2013-01-24 20:36:00,16.3,9.2,30.51,SSE,159,1.0,3.0,73,0.00,,,0.00,Wunderground v.1.15,2013-01-25 02:36:00,
2013-01-24 20:41:00,16.4,9.3,30.52,SSE,159,0.0,1.0,73,0.00,,,0.00,Wunderground v.1.15,2013-01-25 02:41:00,
2013-01-24 20:46:00,16.6,9.1,30.52,SSE,163,1.0,2.0,72,0.00,,,0.00,Wunderground v.1.15,2013-01-25 02:46:00,
2013-01-24 20:51:00,16.7,9.2,30.52,SSE,163,0.0,1.0,72,0.00,,,0.00,Wunderground v.1.15,2013-01-25 02:51:00,
2013-01-24 20:56:00,16.8,9.3,30.52,SSE,163,1.0,2.0,72,0.00,,,0.00,Wunderground v.1.15,2013-01-25 02:56:00,
2013-01-24 21:01:00,16.8,9.6,30.52,SSE,163,0.0,0.0,73,0.00,,,0.00,Wunderground v.1.15,2013-01-25 03:01:00,
2013-01-24 21:06:00,16.8,9.6,30.51,SSE,163,1.0,1.0,73,0.00,,,0.00,Wunderground v.1.15,2013-01-25 03:06:00,
2013-01-24 21:12:00,16.9,10.0,30.50,SSE,163,0.0,2.0,74,0.00,,,0.00,Wunderground v.1.15,2013-01-25 03:12:00,
2013-01-24 21:17:00,17.0,10.1,30.50,SE,144,1.0,2.0,74,0.00,,,0.00,Wunderground v.1.15,2013-01-25 03:17:00,
2013-01-24 21:23:00,17.1,10.5,30.50,SSE,148,2.0,2.0,75,0.00,,,0.00,Wunderground v.1.15,2013-01-25 03:23:00,
2013-01-24 21:28:00,17.2,10.6,30.50,SSE,148,1.0,3.0,75,0.00,,,0.00,Wunderground v.1.15,2013-01-25 03:28:00,
2013-01-24 21:33:00,17.3,10.7,30.49,SSE,158,2.0,4.0,75,0.00,,,0.00,Wunderground v.1.15,2013-01-25 03:33:00,
2013-01-24 21:38:00,17.3,11.0,30.48,SSE,159,1.0,4.0,76,0.00,,,0.00,Wunderground v.1.15,2013-01-25 03:38:00,
2013-01-24 21:43:00,17.4,10.8,30.48,SSE,158,3.0,5.0,75,0.00,,,0.00,Wunderground v.1.15,2013-01-25 03:43:00,
2013-01-24 21:48:00,17.5,10.9,30.47,South,170,5.0,6.0,75,0.00,,,0.00,Wunderground v.1.15,2013-01-25 03:48:00,
2013-01-24 21:53:00,17.6,11.0,30.46,SE,145,5.0,7.0,75,0.00,,,0.00,Wunderground v.1.15,2013-01-25 03:53:00,
2013-01-24 21:58:00,17.7,11.1,30.45,South,171,5.0,7.0,75,0.00,,,0.00,Wunderground v.1.15,2013-01-25 03:58:00,
2013-01-24 22:04:00,17.8,11.2,30.45,SE,138,6.0,9.0,75,0.00,,,0.00,Wunderground v.1.15,2013-01-25 04:04:00,
2013-01-24 22:09:00,17.9,11.0,30.46,South,173,2.0,9.0,74,0.00,,,0.00,Wunderground v.1.15,2013-01-25 04:09:00,
2013-01-24 22:14:00,17.9,11.3,30.46,South,169,4.0,6.0,75,0.00,,,0.00,Wunderground v.1.15,2013-01-25 04:14:00,
2013-01-24 22:19:00,18.0,11.1,30.46,South,188,5.0,7.0,74,0.00,,,0.00,Wunderground v.1.15,2013-01-25 04:19:00,
2013-01-24 22:24:00,18.1,10.6,30.46,South,178,7.0,10.0,72,0.00,,,0.00,Wunderground v.1.15,2013-01-25 04:24:00,
2013-01-24 22:29:00,18.2,10.7,30.47,South,184,6.0,10.0,72,0.00,,,0.00,Wunderground v.1.15,2013-01-25 04:29:00,
2013-01-24 22:35:00,18.3,10.1,30.47,SSW,194,9.0,11.0,70,0.00,,,0.00,Wunderground v.1.15,2013-01-25 04:35:00,
2013-01-24 22:40:00,18.4,9.9,30.46,SSW,202,4.0,11.0,69,0.00,,,0.00,Wunderground v.1.15,2013-01-25 04:40:00,
2013-01-24 22:45:00,18.5,9.7,30.46,SSE,163,6.0,9.0,68,0.00,,,0.00,Wunderground v.1.15,2013-01-25 04:45:00,
2013-01-24 22:50:00,18.6,9.5,30.45,South,178,5.0,12.0,67,0.00,,,0.00,Wunderground v.1.15,2013-01-25 04:50:00,
2013-01-24 22:55:00,18.6,9.1,30.45,South,175,5.0,10.0,66,0.00,,,0.00,Wunderground v.1.15,2013-01-25 04:55:00,
2013-01-24 23:01:00,18.6,9.5,30.46,South,189,6.0,6.0,67,0.00,,,0.00,Wunderground v.1.15,2013-01-25 05:01:00,
2013-01-24 23:02:00,18.6,9.5,30.46,SSE,165,6.0,8.0,67,0.00,,,0.00,Wunderground v.1.15,2013-01-25 05:02:00,
2013-01-24 23:03:00,18.6,9.5,30.45,South,185,9.0,9.0,67,0.00,,,0.00,Wunderground v.1.15,2013-01-25 05:03:00,
2013-01-24 23:08:00,18.7,9.2,30.46,SSE,168,3.0,9.0,66,0.00,,,0.00,Wunderground v.1.15,2013-01-25 05:08:00,
2013-01-24 23:13:00,18.7,9.2,30.46,SSW,204,5.0,7.0,66,0.00,,,0.00,Wunderground v.1.15,2013-01-25 05:13:00,
2013-01-24 23:18:00,18.7,8.9,30.45,South,175,2.0,7.0,65,0.00,,,0.00,Wunderground v.1.15,2013-01-25 05:18:00,
2013-01-24 23:23:00,18.8,9.0,30.46,South,184,2.0,7.0,65,0.00,,,0.00,Wunderground v.1.15,2013-01-25 05:23:00,
2013-01-24 23:28:00,18.8,8.6,30.46,SSW,204,5.0,8.0,64,0.00,,,0.00,Wunderground v.1.15,2013-01-25 05:28:00,
2013-01-24 23:33:00,18.8,8.6,30.46,SSW,196,5.0,9.0,64,0.00,,,0.00,Wunderground v.1.15,2013-01-25 05:33:00,
2013-01-24 23:38:00,18.8,9.0,30.45,South,170,5.0,9.0,65,0.00,,,0.00,Wunderground v.1.15,2013-01-25 05:38:00,
2013-01-24 23:43:00,18.8,9.0,30.45,South,175,5.0,6.0,65,0.00,,,0.00,Wunderground v.1.15,2013-01-25 05:43:00,
2013-01-24 23:48:00,18.8,8.6,30.44,SSW,206,4.0,9.0,64,0.00,,,0.00,Wunderground v.1.15,2013-01-25 05:48:00,
2013-01-24 23:53:00,18.8,9.0,30.44,South,184,3.0,6.0,65,0.00,,,0.00,Wunderground v.1.15,2013-01-25 05:53:00,
2013-01-24 23:59:00,18.8,8.6,30.44,SSW,208,5.0,6.0,64,0.00,,,0.00,Wunderground v.1.15,2013-01-25 05:59:00,